Wind_Speed
97 98 98 99 100 101 101 102 103 103 104 105 107 108 109 110 111 111 111 112 113 113 113 112 112 111 110 109 108 107 104 102 101 100 99 99 96 93 89 86 84 84 82 82 82 82 80 78 75 71 67 65 64 62 62 63 65 71 79 82 84 85 87 92 98 100 100 99 98 98 97 96 94 91 87 86 82 79 76 68 65 64 59 58 58 55 54
101 101 102 103 103 105 106 106 108 109 109 110 112 113 115 116 116 118 118 118 119 119 119 119 119 118 116 115 114 113 111 109 107 106 104 103 100 96 92 89 88 86 85 84 83 83 82 80 77 74 70 69 67 64 64 64 64 69 76 81 82 83 85 89 95 99 102 102 101 101 99 97 96 91 88 86 83 80 78 73 72 69 63 63 60 55 55
105 106 107 108 109 110 111 113 114 116 116 117 118 120 121 123 124 125 125 125 125 125 125 124 124 123 121 120 118 117 116 114 112 110 108 107 104 99 95 92 90 89 88 85 84 84 83 82 80 76 72 71 70 68 66 65 66 68 72 77 80 83 85 87 90 95 99 102 102 101 97 96 95 92 89 87 85 83 80 78 78 72 64 64 61 56 58
111 112 113 114 116 117 119 121 122 124 125 126 126 127 128 129 130 132 132 131 131 131 131 130 128 127 125 123 121 120 118 117 115 113 111 109 107 103 97 94 92 91 89 87 85 85 84 83 81 78 75 73 72 70 67 67 68 67 69 73 78 83 84 84 87 91 95 100 103 102 99 98 98 96 93 91 89 87 85 83 81 72 67 67 62 59 61
118 119 121 123 125 126 128 129 131 132 133 134 134 134 134 135 135 136 137 137 136 136 136 135 133 132 130 127 125 123 121 119 117 115 113 111 110 106 101 97 94 91 90 88 86 86 85 84 82 79 77 74 73 72 69 68 69 69 69 70 75 80 82 81 84 88 91 96 102 104 103 102 101 100 98 96 93 91 90 87 81 74 74 72 65 62 63
126 128 129 131 133 134 135 136 137 138 138 138 138 137 136 136 136 136 137 138 138 138 137 137 136 134 132 130 128 126 124 122 119 117 115 114 112 108 103 98 95 92 91 89 87 86 85 85 82 80 78 75 74 74 72 70 70 69 68 68 71 76 79 81 83 86 89 93 100 104 105 104 103 103 101 99 96 95 93 88 83 81 81 75 68 66 64
133 134 136 137 138 138 139 139 140 140 139 139 138 136 135 134 134 134 134 134 135 136 136 135 134 132 131 129 127 126 125 124 122 120 116 113 111 107 102 98 95 92 92 90 88 87 86 85 83 81 78 75 75 75 73 72 72 70 68 67 68 70 75 80 82 84 88 91 95 102 106 106 105 105 103 101 99 97 94 90 88 87 85 78 72 71 66
136 137 137 138 139 139 139 139 138 137 136 135 133 131 129 128 127 127 126 126 127 128 130 129 128 127 125 124 124 123 123 123 122 119 115 110 108 105 101 98 95 93 92 90 89 87 86 84 83 81 78 76 76 76 75 74 73 71 68 67 66 65 71 78 81 82 86 89 92 98 103 107 108 106 105 103 101 99 96 93 91 91 88 83 78 76 70
135 135 136 136 137 136 135 133 131 128 125 123 121 119 118 116 115 114 114 114 114 115 117 117 116 116 116 116 116 117 118 118 117 115 112 109 107 104 101 98 94 91 90 89 88 86 84 83 83 80 77 76 76 77 76 75 74 72 69 67 66 64 68 75 78 79 83 86 90 94 99 105 110 109 107 105 102 100 97 94 93 91 89 86 82 78 72
131 131 131 130 129 127 124 121 117 114 110 108 107 106 104 103 102 102 101 100 100 102 103 103 103 104 105 105 106 108 110 111 111 111 111 109 107 104 99 95 91 88 87 88 87 85 83 82 80 78 76 76 77 78 77 76 74 71 68 66 64 63 66 71 73 75 80 84 88 92 96 103 109 110 108 105 102 100 97 95 93 92 90 88 85 78 72
125 123 121 119 116 113 110 106 102 99 96 94 93 93 92 91 90 90 89 88 89 90 91 91 92 93 94 95 97 98 102 105 107 108 108 108 107 104 99 94 90 87 87 87 85 83 81 80 79 78 77 77 77 78 78 77 74 71 68 64 61 59 62 67 70 72 75 81 86 91 95 100 104 105 105 104 102 100 98 96 94 93 91 89 85 81 78
113 110 107 104 101 98 95 92 89 86 84 83 83 83 82 81 80 80 79 79 80 81 82 82 83 84 85 87 88 90 93 98 101 104 105 106 106 105 102 97 92 88 86 84 82 81 80 80 80 80 78 76 77 78 78 77 74 71 67 64 60 58 58 62 67 69 70 76 84 90 93 95 96 99 103 105 104 102 101 99 97 95 93 90 87 85 84
100 97 93 91 88 85 84 82 79 77 76 75 74 74 73 72 71 71 71 71 72 74 75 75 76 77 79 80 81 82 85 89 94 98 103 105 106 105 104 100 96 91 87 83 81 81 80 80 80 80 78 77 78 78 78 76 73 70 67 64 62 60 58 58 63 68 70 72 79 87 89 89 90 93 99 103 105 105 104 102 100 97 94 91 88 87 86
89 85 83 81 79 77 75 74 72 70 68 68 67 66 65 65 64 64 63 64 65 67 68 69 70 71 72 73 74 76 78 82 86 92 98 102 104 105 104 101 98 95 90 86 84 83 81 80 80 79 78 79 79 77 76 75 73 70 66 63 62 62 60 57 59 65 69 69 73 79 83 85 86 89 94 99 104 106 106 104 101 98 95 92 90 87 86
80 77 74 73 71 70 68 67 64 62 61 61 61 60 59 59 58 58 57 58 60 61 63 64 64 64 64 66 69 71 73 76 80 85 91 97 101 103 103 101 99 97 95 92 88 86 83 81 80 78 77 78 77 75 75 75 72 69 66 64 63 63 61 58 57 62 66 68 71 74 78 82 85 87 90 95 101 106 107 105 103 100 96 93 90 88 87
72 69 67 65 65 63 61 59 57 55 55 55 55 54 52 52 53 52 52 53 55 57 59 60 59 58 59 61 64 65 67 70 74 79 85 91 96 99 101 101 100 99 98 96 93 89 84 81 80 78 76 75 75 75 75 74 71 69 66 63 63 63 61 57 56 61 65 67 69 72 75 80 83 84 87 92 97 102 105 105 103 100 96 94 92 90 89
65 62 60 59 59 57 56 53 51 49 49 50 50 48 47 47 48 48 48 49 52 55 56 55 55 54 56 58 59 60 63 65 69 74 79 84 89 93 96 99 100 99 98 98 96 92 87 82 80 77 75 74 75 74 73 72 70 68 64 62 62 63 61 56 53 58 63 65 66 68 71 76 78 80 83 88 92 98 102 104 102 99 95 94 94 92 90
59 57 56 55 54 52 51 48 46 44 45 46 46 44 43 43 44 44 45 47 50 52 52 51 51 52 53 55 56 57 60 62 64 69 74 78 84 87 90 96 99 99 97 97 96 92 88 84 80 77 75 75 75 74 72 71 69 65 62 62 63 62 60 55 51 55 60 62 62 64 68 71 74 76 80 84 89 95 98 99 99 96 94 95 96 94 93
55 53 52 51 50 48 46 44 43 41 41 42 42 40 39 40 40 41 42 44 47 49 47 46 48 49 49 51 53 55 57 59 61 65 69 73 78 81 85 91 96 97 96 95 94 91 88 86 83 79 76 74 74 73 71 69 67 63 62 63 63 62 59 53 49 51 57 58 58 60 63 66 69 73 78 82 85 88 90 94 96 95 94 96 97 96 94
52 50 49 47 46 44 43 41 40 40 39 39 38 37 37 36 37 37 38 41 44 44 42 42 44 45 46 48 51 53 55 56 58 61 64 68 72 76 80 86 91 94 94 94 93 91 89 88 86 82 78 75 73 71 69 67 65 63 62 63 62 61 58 50 45 48 53 54 54 54 56 60 64 69 74 77 79 79 81 87 93 94 95 96 96 95 94
49 47 46 44 43 41 40 39 38 38 36 36 36 35 34 33 33 34 35 38 40 39 36 38 40 41 43 46 48 49 52 53 55 57 59 63 67 72 76 80 84 89 92 93 92 91 91 89 86 82 78 75 73 72 70 68 66 63 62 62 62 61 55 46 43 46 49 49 49 49 51 55 60 63 67 70 73 74 76 81 87 90 93 95 95 94 95
46 44 43 42 41 39 38 37 36 35 34 34 33 32 31 30 30 31 33 35 36 33 31 34 37 38 40 43 44 46 48 49 51 54 56 60 63 67 70 74 78 83 88 91 91 91 91 91 88 83 78 75 75 75 73 72 69 65 62 61 60 61 55 46 43 45 45 44 46 47 49 52 55 57 61 65 68 72 75 78 82 85 89 92 93 93 94
45 43 41 40 38 37 36 35 34 33 32 31 30 29 27 27 27 28 30 31 30 29 29 33 35 35 37 39 40 43 45 47 49 52 54 56 59 63 67 69 73 78 84 88 90 91 92 92 89 85 80 78 77 77 75 74 72 67 64 61 60 60 55 46 42 42 40 40 42 43 44 48 50 53 58 61 64 68 72 75 78 81 85 87 89 91 92
43 41 39 37 36 35 33 32 31 30 29 28 27 25 24 24 25 25 27 27 26 26 29 31 31 32 34 36 39 42 43 45 47 49 51 54 57 60 63 65 68 73 79 84 88 90 92 91 89 86 82 79 76 74 74 73 69 65 65 65 64 61 53 44 41 40 38 38 40 40 41 45 47 50 54 57 60 63 66 70 74 78 81 84 86 88 90
40 38 37 35 34 32 30 29 28 27 25 24 24 22 22 22 23 23 23 23 23 25 27 28 29 31 33 36 39 40 41 43 45 48 50 53 55 56 59 61 65 70 76 81 85 88 90 89 87 84 82 79 75 73 72 70 67 65 63 63 62 60 52 44 43 42 41 42 43 44 46 46 44 44 48 52 55 58 60 64 68 72 76 80 82 85 87
37 36 34 33 31 29 27 25 24 23 22 21 20 19 19 20 20 21 20 20 22 23 25 27 29 31 33 36 37 39 40 42 45 47 49 50 52 54 57 60 63 68 74 79 84 87 87 87 85 82 79 76 75 74 72 69 68 66 62 59 58 55 50 47 45 44 45 47 48 48 49 49 46 42 42 44 49 54 57 59 62 66 70 74 78 81 83
34 32 31 29 27 25 23 21 20 19 18 17 17 16 17 18 18 18 18 19 21 23 25 27 29 30 32 34 36 38 40 41 43 45 46 48 51 53 56 59 63 68 74 79 83 85 86 85 83 81 78 76 76 76 73 70 69 67 64 63 59 51 47 48 47 46 49 53 51 47 47 49 48 44 38 35 39 47 53 56 58 61 65 68 72 75 78
30 28 26 24 22 21 19 17 16 15 14 13 13 14 15 15 15 16 17 19 21 23 25 26 27 30 32 34 35 37 38 40 41 43 45 48 50 53 56 59 64 69 74 78 82 84 85 84 82 80 77 77 78 77 72 70 71 69 68 66 58 48 47 50 49 49 54 58 55 49 46 47 47 44 39 36 35 38 43 49 53 57 61 65 68 71 74
25 23 22 20 18 16 15 13 12 11 10 10 10 11 12 13 14 15 17 19 21 23 24 25 27 30 33 34 34 35 37 38 40 43 45 48 50 53 56 60 65 69 74 78 82 84 85 85 84 81 78 78 79 77 73 72 72 71 69 65 56 49 51 54 53 53 57 60 58 53 49 47 42 36 33 33 32 31 34 37 42 48 53 58 63 67 70
21 19 17 15 13 12 10 9 8 7 7 7 8 10 11 12 13 16 18 20 21 23 24 26 28 30 31 32 33 35 37 39 41 43 45 48 50 53 57 61 66 71 75 79 83 85 86 85 84 82 80 78 77 75 73 73 72 69 66 62 55 51 55 57 56 57 61 61 58 54 50 47 39 30 26 28 29 29 30 30 33 39 45 50 56 61 65
17 15 13 11 9 8 6 5 5 5 6 7 9 10 11 12 14 16 18 20 21 23 24 26 28 29 31 32 34 35 38 40 42 44 46 48 51 55 59 64 69 73 78 82 84 85 85 84 83 82 81 78 74 73 73 72 70 67 63 59 54 54 59 60 58 61 63 60 57 54 52 49 42 34 30 29 29 29 29 28 30 35 39 44 49 53 58
13 11 9 7 5 4 3 3 4 6 7 9 10 11 12 14 15 17 19 21 22 24 25 27 28 30 31 32 34 36 38 41 44 46 48 50 53 57 61 66 71 75 78 82 83 83 83 83 82 82 82 77 73 73 74 71 67 63 60 57 55 57 60 60 59 62 63 59 55 54 52 49 43 38 35 33 32 32 30 29 30 33 36 39 44 47 51
10 8 5 4 2 0 2 3 5 6 8 9 11 12 13 15 16 18 19 21 23 24 26 28 29 30 32 33 35 36 38 41 43 46 49 52 55 59 63 67 72 76 79 81 82 83 83 82 82 82 80 75 73 73 72 66 62 59 57 55 56 59 61 60 62 64 64 59 55 52 48 44 41 40 39 37 37 37 35 33 32 32 32 35 38 41 44
7 6 4 2 2 2 3 5 6 7 9 10 12 13 15 16 18 19 20 22 24 25 27 29 30 32 33 34 36 38 39 41 43 46 49 53 57 61 65 69 74 78 81 82 83 84 83 81 81 80 77 74 74 72 66 60 59 58 55 54 58 61 61 61 64 67 64 60 57 51 44 40 41 43 42 40 40 41 40 37 36 34 33 32 33 34 35
6 5 4 3 3 4 5 6 8 9 10 11 13 14 16 17 19 20 22 24 25 27 29 30 31 33 35 36 37 38 39 41 44 47 50 54 58 62 66 71 76 80 82 83 84 84 82 80 78 77 75 74 74 69 62 59 60 58 55 55 59 63 62 61 65 68 65 61 59 53 45 43 46 47 46 44 44 44 42 40 39 39 37 36 35 33 33
6 5 4 4 5 6 7 8 9 10 12 13 14 15 17 18 19 21 23 24 26 27 29 30 31 33 35 36 37 38 39 41 43 46 50 55 59 63 67 72 76 79 81 82 82 82 81 79 76 75 74 74 71 65 61 60 60 58 57 57 60 62 60 60 65 69 66 61 58 54 48 48 52 52 50 49 48 46 44 43 42 41 39 38 38 37 36
6 5 5 5 6 7 9 10 11 12 13 14 15 16 17 19 20 21 23 24 25 26 27 29 31 32 33 35 36 37 39 41 44 47 50 54 59 62 66 70 74 77 79 80 80 79 78 77 76 75 74 72 67 63 61 61 60 60 59 59 60 61 60 60 66 70 66 60 57 53 52 54 56 56 54 53 52 51 51 48 46 44 43 43 42 42 41
7 6 6 6 7 8 10 11 12 13 14 15 16 17 18 19 21 22 23 24 25 25 26 28 30 32 33 34 36 37 39 41 44 47 51 54 58 61 63 66 70 74 76 78 78 77 77 77 77 76 73 68 64 63 63 63 62 61 60 60 61 61 61 64 68 70 67 62 59 56 56 58 60 59 59 58 57 57 57 55 52 51 50 49 48 47 47
9 8 7 7 8 9 10 11 13 14 15 16 17 18 20 21 21 22 23 24 26 27 28 29 30 32 34 36 37 38 39 41 43 46 49 53 56 59 62 65 68 72 74 75 75 76 77 77 77 75 71 67 63 63 64 63 62 61 61 61 62 62 63 67 70 70 68 67 64 61 61 62 62 62 63 64 63 62 62 61 60 59 58 56 54 54 54
11 10 9 8 9 9 10 12 13 14 16 18 19 20 21 22 23 25 27 28 29 30 31 31 32 33 34 36 39 40 41 42 44 46 48 51 54 57 61 65 68 70 72 73 75 75 76 76 75 72 69 66 65 65 65 64 62 62 62 62 62 63 65 70 73 73 71 71 69 67 66 66 65 65 66 67 67 67 67 66 66 65 64 62 60 60 60
13 11 11 10 10 11 11 12 13 15 16 18 19 21 22 23 24 26 28 29 31 32 33 34 35 35 35 36 38 40 42 43 45 47 49 51 53 55 59 63 66 69 72 74 75 75 74 74 73 70 68 67 67 67 67 66 64 64 64 63 63 64 67 71 74 75 75 75 74 72 70 70 68 68 68 69 70 70 70 69 68 68 67 66 65 65 65
14 13 12 12 12 13 13 14 14 15 17 18 20 22 23 24 24 25 26 27 29 31 33 34 36 37 36 36 38 40 42 43 44 46 47 49 51 54 57 60 64 67 71 73 74 74 73 72 71 69 68 68 68 67 67 66 66 65 64 63 63 65 68 72 74 75 76 78 78 76 75 73 72 70 70 71 72 73 73 71 70 69 68 68 68 68 68
15 15 14 13 14 14 15 15 15 16 18 19 21 23 25 25 26 27 27 27 28 29 31 33 35 36 37 38 38 39 41 43 44 45 47 48 51 53 55 58 62 65 68 71 73 73 73 72 71 70 70 69 68 67 67 67 67 67 65 64 63 64 68 73 75 75 75 79 81 80 78 77 76 74 74 74 75 76 76 75 74 73 71 70 71 71 70
18 17 16 15 15 15 15 16 16 17 19 20 22 24 26 26 27 28 29 29 30 30 31 33 34 36 37 38 38 39 41 42 43 45 46 48 50 53 55 57 60 62 65 68 70 72 73 73 73 72 71 70 68 68 69 69 69 68 66 65 65 65 67 73 77 76 75 78 81 81 80 80 80 79 79 79 79 79 78 78 78 77 75 74 73 72 72
20 20 19 18 17 16 16 16 17 17 19 20 21 23 24 25 26 27 28 29 30 31 31 32 34 35 37 38 38 38 40 42 43 44 45 47 48 50 53 55 57 59 62 65 68 69 71 73 73 73 73 72 69 68 69 69 70 69 68 67 66 66 66 71 77 78 77 78 80 80 80 81 82 82 82 83 83 82 81 81 80 79 78 76 75 75 75
23 23 22 21 19 18 18 18 18 18 19 20 21 22 23 24 25 26 26 27 28 29 30 31 32 35 37 40 40 39 40 42 43 43 45 46 47 49 51 53 55 57 60 63 65 67 68 70 71 72 72 72 70 69 70 71 71 70 69 67 66 66 65 68 74 77 78 79 80 80 79 80 82 83 84 85 85 85 86 85 83 81 80 78 77 77 76
25 25 25 23 21 20 19 19 19 19 20 21 22 23 23 23 25 25 26 26 27 27 27 28 29 31 34 37 39 40 40 42 43 43 44 46 47 48 49 51 54 56 59 61 63 65 66 68 70 71 71 71 71 71 72 71 70 69 68 66 66 65 64 66 70 74 77 79 81 79 77 78 81 83 85 86 86 87 87 87 87 85 83 80 79 79 78
24 24 25 25 24 23 22 21 21 21 21 21 21 22 22 23 24 25 26 27 28 28 27 27 28 28 29 31 35 38 39 41 42 43 44 45 46 46 47 49 52 55 58 60 63 64 65 67 70 71 71 72 72 72 71 70 68 67 66 65 65 65 65 65 67 69 73 77 80 79 76 76 79 82 84 85 86 87 86 86 86 86 84 82 81 80 80
23 23 24 24 25 24 24 23 23 23 22 22 22 21 21 22 23 24 25 26 28 30 30 30 31 31 30 30 32 35 37 39 40 41 43 44 45 47 48 49 51 54 57 60 62 64 65 67 69 70 70 71 71 71 70 69 68 66 65 64 65 65 65 65 66 67 68 72 77 79 77 77 79 81 83 84 85 86 87 87 86 85 83 82 82 82 82
24 24 24 24 24 24 23 24 24 25 24 23 23 23 22 23 23 23 23 24 25 26 28 30 32 34 34 33 33 33 35 36 38 40 42 44 45 47 48 50 52 54 57 59 61 62 64 65 66 67 67 68 68 68 67 66 65 65 64 64 65 65 65 65 66 66 67 69 74 77 78 78 79 81 83 83 83 84 85 87 88 87 85 83 83 84 84
24 24 23 23 23 23 23 23 24 25 24 24 23 23 23 24 24 24 25 25 25 24 25 26 29 32 34 35 35 35 35 36 38 40 42 43 46 48 50 51 53 56 57 59 60 61 62 63 63 63 63 64 64 63 63 63 63 62 63 64 64 64 65 65 66 67 68 71 73 76 78 79 79 80 82 84 84 83 82 84 87 90 89 88 87 86 87
23 22 22 22 22 22 22 22 23 24 23 23 23 23 24 24 24 24 25 26 26 26 26 26 27 29 32 35 37 38 37 37 39 40 41 43 45 48 50 52 54 56 58 59 60 61 62 61 60 60 60 60 60 61 61 61 60 60 61 62 64 64 64 65 65 67 69 73 74 75 77 79 80 80 81 83 83 83 83 84 86 89 92 93 93 92 92
Wind_Direction
286 286 285 284 283 283 282 282 281 280 280 279 278 278 277 277 277 276 276 275 275 275 275 274 274 274 273 273 272 272 271 271 270 270 271 271 270 269 268 265 263 264 264 264 263 262 261 261 261 261 260 258 252 245 243 242 239 239 239 236 233 230 228 228 227 225 225 227 225 226 228 230 230 230 229 231 233 235 236 235 234 233 232 232 232 233 235
286 285 284 284 283 282 281 280 280 279 278 278 277 277 277 276 276 275 274 273 273 273 272 272 272 272 272 272 272 272 271 271 270 270 269 269 268 267 266 264 262 262 262 262 261 260 260 259 259 258 258 258 255 249 245 243 241 239 239 238 236 233 229 228 228 225 225 226 226 226 227 229 231 231 230 230 232 235 236 235 234 233 232 232 233 233 234
286 285 284 283 282 281 280 279 278 278 277 276 275 275 274 273 273 272 271 270 270 270 269 269 269 269 270 270 270 270 270 269 269 268 268 267 267 266 264 262 261 260 260 260 259 259 258 257 257 257 256 256 255 252 246 244 242 240 239 238 237 235 231 228 228 227 225 226 228 228 227 229 231 232 231 231 231 233 236 236 236 235 233 234 235 234 234
286 285 284 283 282 281 280 279 277 276 275 274 273 272 271 270 270 269 269 268 267 267 267 266 266 266 266 267 267 267 267 266 266 266 265 265 265 264 262 260 258 257 258 258 257 256 256 255 255 254 253 253 254 253 249 245 244 242 239 237 236 236 233 229 228 228 226 225 227 228 227 227 229 230 230 230 230 231 233 234 235 235 233 234 234 233 233
287 286 284 283 282 280 279 277 276 275 274 273 272 271 270 269 268 268 267 267 266 265 265 264 264 264 264 264 264 264 263 263 263 263 263 263 262 262 261 259 257 255 255 254 254 253 253 253 253 253 252 252 252 253 251 247 245 243 240 238 237 237 235 231 229 228 227 225 226 227 227 226 227 229 229 229 228 229 230 232 233 234 233 233 232 231 231
286 285 283 282 280 279 278 276 275 274 273 273 272 271 270 269 268 267 267 266 265 265 264 263 263 262 262 261 261 261 260 260 260 260 260 260 260 260 259 257 255 253 252 252 251 251 251 251 251 251 251 251 250 251 250 248 245 243 241 239 237 237 236 233 230 228 227 226 225 226 227 227 227 228 229 229 229 229 229 230 231 232 233 232 230 229 229
285 283 282 280 279 278 276 275 275 274 273 273 272 271 271 270 269 267 266 265 265 264 264 263 262 261 260 260 259 258 258 258 257 257 257 257 258 257 256 254 252 250 249 249 248 248 248 249 249 249 249 249 248 248 248 248 246 243 241 240 239 237 236 235 232 229 227 226 226 226 226 226 227 227 228 229 230 229 229 228 229 231 232 231 228 228 227
283 282 280 279 278 277 276 275 275 275 274 274 274 273 273 271 270 269 267 266 265 264 263 262 261 260 260 258 257 257 256 255 255 255 254 254 254 253 251 250 248 248 247 247 246 246 246 246 246 247 247 247 246 246 246 247 246 244 241 241 240 237 236 236 234 230 228 227 227 226 226 226 227 227 228 229 229 230 230 229 229 230 231 231 229 229 229
283 281 280 279 278 278 278 278 278 278 277 277 276 275 274 272 271 269 268 267 265 264 263 262 261 260 258 257 256 255 254 253 253 252 251 249 248 248 247 247 246 246 246 245 243 243 243 243 244 245 245 244 244 244 245 246 246 244 242 242 241 238 236 236 235 232 230 228 227 227 226 226 227 227 227 228 229 230 230 230 230 231 232 232 231 231 231
283 282 282 281 281 281 281 281 281 280 279 278 276 275 273 271 270 269 268 267 265 264 262 261 260 258 257 255 254 253 252 251 251 249 247 246 245 244 243 243 243 242 241 241 240 240 240 240 241 242 242 241 241 241 242 244 245 244 242 242 241 239 237 237 236 234 232 230 228 227 227 227 226 227 227 228 229 230 231 231 232 233 233 233 233 232 231
286 285 285 284 284 284 283 282 282 281 279 277 275 273 272 271 270 269 267 266 264 263 261 259 258 257 255 254 252 250 249 248 248 246 245 244 242 240 238 238 238 237 237 237 237 237 237 237 238 239 239 238 239 239 241 243 244 243 242 241 240 237 236 236 236 234 232 231 229 227 227 227 227 227 227 228 229 229 231 232 232 233 234 235 235 233 230
288 288 287 286 285 285 284 283 282 281 279 277 274 273 272 270 269 268 266 264 262 261 259 258 256 255 254 252 250 248 246 246 245 244 243 241 239 237 235 233 233 232 233 234 234 234 234 234 235 236 236 235 235 237 239 241 243 243 241 240 239 236 234 236 236 234 232 231 230 228 228 228 227 227 227 228 228 229 230 230 231 232 233 234 235 234 234
291 290 289 287 286 285 284 283 282 280 278 276 274 272 271 270 268 266 264 262 260 258 257 256 254 253 251 250 249 247 245 244 243 241 240 239 237 236 234 232 230 229 229 229 229 230 231 232 233 234 234 233 233 235 238 240 242 243 242 240 239 236 233 234 236 235 233 232 231 230 229 228 227 227 227 227 228 228 229 229 230 231 232 232 233 235 236
293 291 290 288 287 285 284 283 281 280 278 276 274 272 270 269 267 265 263 260 258 257 255 254 252 250 249 249 248 246 244 242 240 239 237 237 235 234 233 231 229 227 225 224 226 228 229 229 231 231 231 231 231 233 237 239 240 242 242 240 239 237 233 233 236 237 235 234 233 231 230 229 228 228 227 227 227 228 229 229 229 230 231 231 232 234 235
293 291 290 288 287 285 283 282 281 279 278 276 274 272 270 268 266 264 261 258 256 255 253 252 250 249 248 247 245 244 242 240 238 236 235 234 233 232 231 230 228 226 223 222 223 225 226 227 228 229 229 230 231 232 234 237 239 240 241 241 240 238 234 233 237 239 238 236 234 232 230 230 229 228 227 227 227 228 228 229 229 230 230 231 232 233 234
293 292 290 289 287 285 283 282 281 280 277 275 273 271 269 266 264 261 259 256 254 252 251 250 249 247 245 244 242 241 240 238 236 234 232 232 232 231 229 228 227 225 223 221 221 223 224 225 226 226 227 228 228 229 231 234 236 237 239 239 241 240 236 234 238 241 240 238 236 233 231 230 230 229 228 228 228 228 228 228 229 229 230 231 232 233 233
295 293 292 289 287 286 285 284 282 280 277 274 272 270 267 265 262 259 256 253 251 250 248 247 246 244 242 241 240 239 238 236 234 232 230 230 230 229 228 226 225 224 222 221 221 222 222 222 223 224 225 225 226 227 229 232 234 235 237 238 240 241 238 235 239 243 242 239 236 234 232 230 229 229 229 229 229 228 228 228 228 229 230 231 232 233 233
296 295 293 291 289 288 286 285 282 280 277 274 272 269 266 263 260 257 253 250 249 248 247 245 244 241 239 238 237 236 235 233 231 229 228 227 227 227 226 224 223 223 221 220 220 221 221 220 221 222 223 223 224 226 228 230 232 234 236 237 239 241 240 237 239 243 243 239 236 234 233 231 230 230 230 229 229 229 228 228 228 228 229 230 231 232 232
297 295 293 292 290 289 287 286 283 280 276 274 272 269 265 261 258 255 252 249 248 247 245 243 241 239 237 236 234 233 232 231 229 227 225 225 225 225 224 222 221 221 220 219 219 219 219 219 219 219 220 221 222 225 228 231 233 234 236 237 239 241 241 238 239 242 243 240 236 233 233 232 231 231 230 230 230 230 229 229 228 227 228 229 230 231 232
298 296 294 292 291 289 288 286 283 280 277 274 272 268 264 260 257 254 251 249 248 247 244 241 239 237 235 233 231 230 229 228 226 224 223 223 223 222 222 221 220 219 219 218 217 217 218 219 219 219 219 219 220 223 227 230 232 233 235 237 239 240 240 238 238 241 242 240 236 234 233 233 233 232 231 230 230 230 230 229 229 227 228 229 230 231 231
299 297 295 293 291 290 288 285 282 280 277 274 271 268 265 261 258 255 252 249 249 248 244 239 238 234 231 230 229 228 227 226 224 223 221 221 220 220 220 219 218 217 217 217 215 215 216 218 218 218 218 217 218 221 225 228 229 230 233 235 238 240 238 235 236 240 239 237 235 233 233 234 234 233 231 230 229 230 230 229 228 227 227 228 229 231 231
300 298 296 294 293 291 289 286 283 280 277 274 271 268 266 262 258 254 251 248 248 246 241 237 235 231 228 226 225 224 224 223 221 220 218 218 218 218 218 217 217 215 215 215 214 213 214 216 216 216 216 216 217 220 223 224 226 228 231 234 238 240 237 233 234 236 235 233 232 232 233 235 236 236 233 230 229 229 229 229 228 227 227 228 229 231 232
300 298 296 295 294 292 290 287 284 281 277 275 272 269 266 261 256 252 249 247 245 241 235 232 230 227 224 222 221 221 220 219 217 217 215 214 214 214 214 214 214 213 212 212 212 211 212 214 215 213 213 213 216 219 222 223 225 227 230 232 236 238 236 232 232 233 230 228 229 231 235 238 239 238 234 231 230 229 229 228 228 227 228 228 229 230 231
299 298 297 296 294 292 289 286 283 280 277 275 272 268 264 258 253 249 245 243 241 235 230 227 224 222 219 217 216 216 215 214 213 212 211 211 211 211 211 211 210 210 210 209 209 209 210 213 214 213 212 212 214 218 221 223 224 227 231 233 235 237 236 231 227 224 219 215 217 221 229 235 238 239 236 232 231 231 230 230 229 228 228 228 229 230 231
299 299 298 297 295 293 290 287 283 280 277 274 270 265 260 253 248 244 241 238 233 229 225 221 217 215 213 212 211 211 210 209 209 208 207 207 207 207 207 207 206 206 206 206 206 207 209 210 212 213 212 212 213 216 219 221 222 224 228 233 237 238 235 227 220 215 209 206 208 215 222 228 232 237 238 235 232 232 232 232 231 230 229 229 229 230 231
301 300 299 297 295 293 290 287 284 281 277 272 266 260 254 248 242 238 234 230 225 221 217 213 210 208 207 207 207 206 205 205 205 204 204 203 203 202 202 202 202 202 202 202 203 204 206 208 210 211 211 211 213 216 217 218 219 221 224 228 233 234 229 220 213 209 204 203 208 215 222 226 228 234 239 239 236 233 233 233 233 233 232 231 231 232 232
301 300 298 297 295 293 290 287 284 280 276 269 262 254 246 241 236 230 224 219 215 211 208 206 203 202 202 203 202 201 201 200 201 200 200 199 199 198 197 198 198 198 199 200 200 201 202 205 207 209 209 210 214 216 215 216 219 220 222 225 228 227 220 212 208 205 203 203 207 215 221 224 226 228 232 238 238 235 233 233 233 233 233 232 232 233 233
301 300 299 298 296 293 290 287 283 278 272 264 254 246 238 232 227 220 214 209 206 204 202 199 197 196 198 199 198 198 197 197 196 196 196 195 195 194 193 193 194 195 196 197 198 199 200 201 204 206 207 210 214 216 215 216 219 222 224 226 226 221 214 208 204 203 203 204 207 213 219 222 225 226 229 235 242 241 237 235 235 234 234 233 232 232 233
302 302 301 298 296 293 289 286 281 274 264 253 243 235 228 221 214 208 204 200 199 198 195 192 191 193 194 194 194 193 193 193 193 192 192 192 191 190 190 190 190 191 193 194 195 197 198 200 201 202 205 209 213 215 215 217 220 222 225 227 226 218 209 204 202 201 201 204 209 213 217 220 225 226 227 232 240 245 242 240 238 237 236 235 233 233 233
305 304 301 298 295 290 286 280 272 260 245 232 223 218 212 206 201 198 195 193 192 191 188 187 188 190 190 189 188 188 188 188 189 189 189 189 188 187 187 187 188 188 190 192 194 195 197 199 200 201 203 208 212 214 215 217 219 221 223 225 223 214 205 201 199 199 200 204 209 212 213 215 216 215 218 226 235 242 245 242 239 239 238 237 236 234 234
309 306 303 300 294 288 279 265 245 226 210 203 199 196 192 190 189 189 187 186 185 184 183 184 185 185 185 184 184 184 184 184 185 185 186 185 185 185 185 185 186 187 188 191 193 194 195 197 199 201 204 206 209 213 214 216 218 220 221 221 218 210 203 199 198 198 201 205 209 211 213 215 213 209 212 222 230 238 244 245 243 242 242 240 239 237 235
313 311 308 304 297 282 257 222 201 190 184 183 183 182 179 179 180 180 180 179 178 178 179 180 181 181 180 180 181 181 182 182 182 182 182 182 182 183 183 184 185 186 187 190 192 194 196 197 198 202 205 205 207 212 214 215 217 218 217 217 214 206 199 198 198 199 201 206 210 212 215 218 215 208 208 215 222 228 236 242 244 245 244 241 240 239 238
324 324 324 323 320 249 187 175 171 170 170 171 170 169 169 170 171 173 174 173 173 174 176 177 177 177 177 177 178 179 180 180 181 181 180 179 180 182 182 183 184 185 186 188 191 194 197 197 198 202 205 203 205 210 214 213 213 213 213 213 209 201 197 198 199 199 200 204 209 211 214 215 209 201 202 210 217 221 227 233 239 243 246 245 244 242 241
341 347 357 17 69 112 134 143 148 151 155 156 158 160 162 164 166 166 167 169 170 171 173 174 174 173 173 174 176 177 177 178 178 178 178 178 179 181 182 183 183 184 185 188 191 194 197 198 199 202 204 203 205 209 210 208 207 208 208 207 203 197 195 198 199 198 199 202 206 208 208 205 197 193 196 205 213 218 223 228 231 233 236 239 242 241 240
3 14 31 59 89 108 121 130 135 141 144 148 152 155 158 160 162 162 164 167 169 170 171 172 172 171 171 173 174 175 175 176 176 176 176 177 179 181 182 182 184 185 186 188 191 194 196 197 199 201 202 204 207 208 206 203 203 204 203 201 196 194 196 198 198 198 199 202 204 205 201 194 190 192 196 201 208 215 220 221 223 225 227 229 231 232 233
18 34 57 80 96 109 119 126 131 137 142 146 149 153 154 156 158 161 163 165 167 169 169 169 170 170 171 171 172 172 173 174 174 175 176 176 179 182 183 183 185 187 188 190 192 194 195 196 198 201 202 204 205 206 204 201 201 201 200 197 194 195 197 198 198 198 200 203 204 203 198 191 190 195 199 200 205 213 218 219 221 222 223 224 226 227 228
31 47 69 87 101 112 119 125 131 135 139 143 147 150 151 153 155 158 160 161 163 165 165 165 166 167 168 168 168 169 170 171 173 174 176 177 179 182 184 185 186 188 189 191 192 194 195 196 197 200 203 204 203 202 202 202 200 200 199 196 193 195 198 198 197 198 200 202 204 202 197 193 192 196 200 201 204 210 216 219 221 221 221 222 223 223 223
38 50 68 88 103 113 121 127 131 134 137 140 143 145 147 150 153 155 157 156 156 157 159 161 162 163 163 164 165 166 168 170 172 173 175 177 179 182 184 186 187 188 190 191 193 194 195 196 198 201 203 203 201 200 201 202 200 199 199 197 194 195 197 198 197 196 198 201 202 200 197 197 197 199 201 202 204 208 213 216 218 219 219 220 221 221 220
45 51 64 83 99 111 122 127 130 134 136 138 140 143 145 146 148 148 148 148 149 151 153 156 158 159 160 161 162 164 166 168 170 173 175 177 179 180 182 184 187 189 191 192 194 194 194 196 199 201 203 202 199 198 200 201 200 200 200 199 196 195 197 198 197 197 198 200 200 199 198 200 201 202 203 204 206 209 212 214 216 217 218 219 220 221 221
52 56 65 79 93 105 116 122 127 133 135 137 139 142 142 142 144 145 146 147 148 150 151 152 154 156 159 161 162 162 163 166 169 171 174 177 179 180 181 183 185 188 190 192 195 196 196 197 199 201 202 200 198 197 198 201 202 203 203 202 198 197 197 198 199 199 199 200 201 199 199 201 203 204 205 206 207 210 213 215 216 218 218 218 218 220 222
58 64 71 81 91 100 109 116 123 129 132 135 138 139 139 140 143 146 149 150 150 150 151 152 152 154 158 160 161 160 161 165 168 170 173 175 177 179 181 182 184 187 189 192 195 197 197 198 199 200 201 200 199 197 199 202 204 205 205 204 201 198 197 199 200 201 201 201 202 202 201 202 205 208 209 209 209 211 214 218 220 220 220 220 220 222 223
63 70 77 84 92 99 106 113 120 125 129 131 134 134 134 136 139 142 146 148 149 151 153 154 154 154 156 158 159 160 161 163 166 169 171 173 175 177 180 182 183 186 188 191 194 196 197 198 198 199 201 201 200 199 200 203 204 206 207 207 204 201 199 199 202 204 204 203 204 204 203 204 207 210 213 213 213 213 216 219 223 224 224 224 224 225 225
66 70 77 86 94 101 107 112 117 122 125 128 131 132 132 134 137 140 143 145 148 150 153 154 154 155 155 156 159 160 160 162 165 167 169 171 173 176 179 181 184 185 187 189 192 195 196 197 197 199 201 202 201 199 200 203 205 206 208 208 206 204 202 201 203 206 208 207 207 207 206 206 208 211 215 217 218 217 218 220 223 226 227 228 229 229 229
71 73 76 82 90 98 105 111 116 122 125 127 131 133 134 137 141 143 144 146 148 150 153 155 156 156 155 156 158 160 160 162 164 167 168 170 173 175 178 180 183 185 186 188 191 194 195 196 197 198 200 202 202 201 202 204 205 206 208 208 206 205 204 203 204 207 210 210 210 211 210 210 211 213 216 218 220 220 221 222 223 225 228 230 231 232 233
74 77 78 81 87 93 100 107 114 121 124 127 131 133 136 139 142 144 146 148 149 150 154 157 157 156 155 155 157 160 161 162 164 166 168 169 172 175 177 179 182 184 185 188 192 194 194 196 197 198 199 201 202 203 204 205 206 207 209 209 207 206 206 206 206 209 212 213 213 215 215 214 214 216 218 220 222 223 224 225 226 227 229 231 232 234 235
78 80 80 82 86 91 97 104 111 116 121 125 127 130 134 139 141 142 145 147 148 150 155 158 158 157 157 157 158 161 162 162 164 166 168 169 171 174 176 178 180 182 185 189 192 194 194 196 198 200 200 201 202 204 205 206 207 208 209 209 209 208 208 209 209 211 213 214 215 217 218 219 219 220 222 223 225 226 227 228 229 230 231 233 235 236 238
86 87 87 86 86 89 95 102 107 112 117 123 127 130 133 137 138 140 142 144 145 148 153 155 156 158 160 160 159 161 163 164 164 166 167 169 170 173 176 177 179 181 185 188 192 194 195 196 198 200 201 202 203 205 207 208 208 208 209 209 210 211 211 212 212 213 214 215 216 217 219 222 223 224 225 225 227 228 230 231 232 232 234 236 238 240 241
88 91 93 94 95 96 98 102 106 110 114 119 124 129 134 137 138 139 142 143 144 146 150 151 151 153 158 161 161 162 164 165 165 166 167 169 170 172 175 177 179 181 184 188 191 193 195 197 199 200 201 202 204 207 208 209 210 210 209 210 211 212 213 215 215 214 215 216 216 217 219 221 224 225 227 227 228 228 230 232 233 235 236 238 240 241 243
88 89 91 94 97 99 101 104 107 109 112 116 120 124 130 133 135 137 141 145 147 148 150 151 150 151 155 160 162 162 164 166 167 167 168 169 170 171 174 177 180 183 186 188 190 193 195 198 199 201 202 203 205 208 209 210 211 211 210 211 213 214 215 216 217 216 216 216 216 217 219 221 223 225 227 229 229 230 230 231 233 235 237 239 240 241 243
87 88 89 92 96 99 102 105 107 109 111 115 119 123 127 130 131 133 138 144 146 148 151 152 152 153 154 157 159 162 165 167 168 169 171 172 172 173 174 177 180 184 187 189 190 193 195 198 200 202 204 205 207 209 211 211 212 212 212 213 214 215 216 217 218 218 217 215 216 218 220 221 223 225 227 229 230 232 232 232 233 234 235 237 239 240 243
84 86 88 91 95 99 103 106 108 110 112 116 120 124 128 130 132 134 137 139 141 144 147 151 154 155 156 157 159 162 167 170 171 172 174 175 175 175 176 179 182 185 188 190 192 194 196 199 201 203 205 207 208 210 212 214 214 214 214 215 216 217 218 218 219 219 218 217 217 219 221 221 222 224 226 228 230 232 234 234 234 235 236 238 239 241 243
82 84 87 90 94 98 101 104 107 109 112 116 120 124 127 129 131 133 135 137 139 142 145 149 154 158 160 162 163 165 170 174 175 175 177 178 179 179 180 181 184 186 189 191 193 195 198 200 202 204 206 208 210 211 213 215 217 217 218 218 218 219 220 220 220 219 219 218 219 221 223 223 223 224 225 227 229 231 233 234 235 236 237 239 240 242 244
Height
10707 10703 10699 10696 10693 10690 10688 10686 10683 10683 10682 10679 10675 10673 10671 10671 10669 10666 10667 10665 10661 10660 10662 10663 10662 10665 10670 10673 10674 10677 10683 10688 10689 10692 10695 10696 10697 10702 10706 10711 10713 10714 10717 10718 10719 10721 10724 10728 10731 10734 10737 10737 10738 10743 10746 10746 10748 10750 10752 10756 10761 10769 10779 10783 10788 10799 10805 10809 10816 10817 10820 10825 10829 10839 10848 10851 10857 10862 10869 10880 10884 10885 10893 10896 10896 10901 10903
10689 10685 10681 10678 10675 10671 10668 10666 10663 10662 10661 10659 10656 10653 10650 10650 10649 10644 10644 10646 10643 10640 10643 10643 10643 10646 10651 10653 10656 10660 10663 10668 10671 10675 10679 10681 10681 10686 10692 10696 10699 10701 10704 10706 10708 10709 10713 10717 10719 10723 10726 10726 10728 10731 10735 10736 10737 10739 10741 10745 10753 10761 10769 10772 10776 10786 10794 10797 10801 10806 10814 10819 10823 10835 10844 10847 10855 10860 10864 10871 10871 10875 10886 10887 10891 10900 10899
10671 10666 10662 10658 10654 10650 10647 10644 10641 10638 10637 10637 10635 10632 10628 10627 10626 10622 10620 10623 10623 10621 10621 10622 10624 10627 10630 10634 10639 10641 10643 10648 10653 10656 10661 10664 10665 10671 10677 10681 10685 10688 10690 10694 10696 10697 10701 10705 10707 10712 10715 10716 10716 10719 10724 10726 10726 10729 10732 10737 10744 10749 10754 10762 10768 10776 10785 10791 10795 10803 10814 10818 10820 10829 10837 10842 10849 10852 10855 10859 10860 10871 10882 10881 10888 10898 10893
10650 10645 10640 10636 10631 10627 10623 10619 10615 10612 10610 10609 10608 10607 10605 10603 10601 10597 10594 10597 10600 10599 10597 10600 10603 10605 10610 10616 10620 10621 10624 10629 10633 10637 10643 10647 10649 10654 10661 10665 10670 10674 10677 10682 10684 10684 10688 10692 10695 10700 10703 10704 10705 10708 10713 10716 10717 10720 10723 10728 10734 10736 10742 10755 10761 10767 10777 10783 10787 10794 10802 10807 10809 10815 10823 10829 10835 10840 10843 10845 10853 10869 10876 10873 10883 10891 10886
10627 10621 10615 10610 10605 10600 10595 10590 10586 10582 10579 10578 10578 10577 10576 10576 10575 10572 10569 10569 10571 10572 10573 10575 10578 10581 10587 10595 10599 10601 10604 10609 10614 10619 10625 10628 10631 10637 10644 10649 10655 10660 10664 10667 10670 10672 10675 10679 10683 10687 10690 10694 10696 10698 10702 10705 10706 10709 10714 10720 10725 10727 10735 10746 10751 10757 10765 10771 10775 10780 10787 10794 10799 10802 10808 10814 10821 10827 10829 10836 10852 10863 10860 10863 10876 10880 10879
10601 10594 10588 10582 10575 10570 10565 10560 10555 10552 10548 10546 10546 10546 10545 10545 10546 10544 10542 10541 10540 10542 10545 10547 10550 10556 10562 10570 10577 10580 10584 10588 10593 10600 10606 10609 10613 10620 10627 10634 10640 10645 10649 10652 10657 10660 10662 10666 10672 10675 10679 10684 10686 10686 10690 10694 10696 10700 10706 10712 10715 10720 10728 10734 10739 10747 10753 10757 10762 10767 10773 10782 10787 10791 10797 10805 10811 10816 10821 10833 10846 10846 10845 10857 10868 10868 10872
10572 10564 10557 10551 10544 10538 10533 10529 10524 10521 10519 10516 10515 10515 10514 10514 10515 10514 10513 10515 10514 10511 10513 10517 10523 10530 10537 10544 10552 10557 10562 10567 10571 10578 10587 10592 10597 10603 10611 10617 10623 10629 10633 10638 10644 10646 10649 10654 10659 10663 10668 10673 10674 10675 10678 10683 10685 10689 10697 10703 10707 10714 10719 10721 10727 10736 10741 10746 10752 10756 10763 10770 10774 10780 10788 10794 10801 10807 10815 10827 10833 10831 10836 10850 10855 10856 10865
10541 10533 10526 10519 10513 10507 10502 10499 10495 10493 10491 10488 10485 10484 10483 10483 10483 10483 10482 10486 10487 10484 10484 10488 10496 10503 10511 10519 10526 10532 10538 10543 10548 10558 10570 10577 10580 10585 10591 10598 10605 10612 10619 10625 10631 10634 10638 10642 10646 10652 10658 10662 10663 10664 10667 10672 10675 10680 10688 10694 10700 10706 10709 10710 10717 10726 10732 10738 10743 10746 10753 10759 10763 10770 10778 10784 10791 10799 10808 10818 10822 10823 10831 10841 10844 10849 10858
10510 10502 10495 10488 10482 10477 10473 10470 10467 10466 10464 10461 10456 10454 10453 10452 10453 10453 10453 10457 10459 10458 10458 10461 10469 10477 10484 10492 10500 10508 10514 10520 10529 10541 10551 10556 10560 10565 10572 10581 10592 10601 10608 10613 10618 10621 10626 10631 10636 10643 10649 10651 10653 10654 10658 10662 10666 10671 10679 10686 10692 10698 10700 10703 10709 10716 10723 10729 10732 10736 10742 10746 10749 10757 10766 10774 10783 10792 10801 10810 10815 10819 10827 10833 10836 10845 10855
10479 10472 10465 10459 10453 10449 10446 10443 10441 10440 10438 10435 10429 10426 10425 10426 10426 10427 10429 10432 10434 10433 10435 10438 10445 10452 10458 10465 10475 10485 10492 10500 10510 10519 10526 10533 10540 10549 10559 10569 10580 10588 10593 10597 10603 10609 10616 10622 10627 10633 10638 10639 10642 10645 10647 10652 10656 10662 10671 10678 10684 10690 10692 10695 10702 10708 10713 10716 10720 10726 10729 10729 10735 10748 10760 10769 10778 10787 10795 10803 10810 10815 10820 10825 10832 10844 10851
10451 10444 10438 10433 10428 10425 10421 10418 10417 10416 10414 10410 10406 10402 10401 10404 10405 10405 10408 10411 10412 10411 10414 10419 10425 10430 10436 10442 10453 10463 10471 10478 10487 10496 10506 10515 10523 10534 10545 10554 10563 10572 10577 10583 10592 10601 10607 10612 10616 10621 10625 10629 10632 10635 10637 10642 10648 10655 10663 10670 10677 10682 10684 10687 10694 10698 10700 10703 10709 10713 10714 10717 10730 10745 10755 10763 10772 10780 10787 10794 10801 10807 10812 10818 10828 10837 10836
10425 10419 10414 10409 10405 10403 10399 10396 10395 10395 10392 10388 10385 10383 10382 10384 10387 10387 10389 10392 10393 10393 10396 10402 10406 10412 10418 10423 10432 10442 10450 10458 10467 10477 10488 10497 10505 10515 10527 10536 10547 10558 10565 10574 10584 10590 10594 10599 10604 10608 10614 10620 10623 10624 10628 10634 10640 10647 10655 10662 10669 10674 10676 10680 10685 10688 10691 10695 10698 10701 10705 10714 10727 10737 10744 10752 10760 10767 10773 10779 10787 10794 10801 10810 10819 10824 10824
10403 10398 10393 10388 10385 10383 10380 10377 10376 10375 10372 10370 10368 10367 10367 10367 10370 10371 10373 10376 10377 10377 10381 10386 10390 10396 10401 10405 10413 10424 10433 10440 10450 10459 10468 10477 10486 10497 10509 10521 10533 10543 10554 10565 10572 10576 10581 10587 10592 10598 10605 10611 10613 10616 10621 10627 10633 10639 10647 10654 10661 10667 10670 10672 10675 10678 10682 10686 10688 10692 10700 10711 10720 10727 10734 10741 10748 10754 10759 10765 10774 10782 10792 10801 10809 10814 10817
10384 10379 10374 10370 10368 10366 10362 10360 10359 10358 10356 10354 10352 10353 10354 10353 10355 10357 10359 10361 10362 10363 10367 10371 10374 10380 10387 10392 10400 10409 10416 10424 10432 10441 10450 10458 10468 10480 10493 10506 10518 10529 10541 10551 10557 10562 10570 10577 10582 10589 10595 10599 10604 10611 10616 10620 10625 10632 10639 10646 10652 10657 10661 10665 10667 10670 10674 10678 10681 10687 10697 10705 10711 10717 10724 10730 10735 10740 10746 10754 10764 10773 10782 10790 10799 10805 10809
10367 10363 10359 10355 10352 10350 10347 10345 10345 10344 10343 10340 10338 10339 10341 10341 10342 10344 10347 10348 10350 10351 10354 10357 10361 10369 10376 10381 10386 10393 10400 10407 10416 10425 10433 10441 10451 10464 10477 10491 10503 10514 10525 10535 10544 10552 10560 10567 10573 10580 10585 10591 10600 10608 10610 10612 10618 10625 10631 10638 10643 10647 10653 10658 10661 10663 10666 10670 10675 10682 10690 10696 10700 10706 10714 10718 10721 10727 10735 10743 10753 10763 10773 10783 10791 10796 10800
10352 10349 10346 10341 10337 10335 10333 10333 10332 10332 10330 10327 10325 10326 10329 10329 10330 10332 10335 10336 10337 10339 10341 10345 10351 10359 10364 10368 10373 10379 10386 10393 10402 10410 10418 10426 10435 10448 10462 10476 10488 10498 10509 10521 10531 10541 10551 10559 10566 10573 10580 10588 10595 10599 10601 10605 10611 10616 10623 10630 10635 10638 10645 10651 10654 10655 10659 10665 10670 10677 10684 10687 10691 10698 10704 10707 10710 10717 10724 10730 10741 10755 10767 10775 10781 10785 10789
10339 10336 10333 10328 10325 10323 10321 10321 10321 10320 10318 10315 10314 10316 10318 10318 10319 10321 10323 10325 10325 10326 10330 10335 10341 10348 10353 10356 10362 10369 10374 10381 10390 10398 10406 10414 10422 10433 10448 10462 10472 10483 10497 10509 10519 10531 10543 10552 10560 10568 10575 10581 10586 10590 10593 10598 10603 10609 10618 10625 10628 10630 10637 10644 10647 10649 10653 10659 10665 10671 10675 10679 10684 10689 10693 10697 10700 10704 10709 10720 10735 10751 10760 10764 10769 10774 10779
10327 10324 10320 10316 10314 10312 10310 10310 10310 10309 10307 10305 10305 10307 10309 10309 10309 10311 10313 10315 10314 10315 10321 10328 10332 10337 10342 10347 10353 10359 10363 10370 10378 10387 10395 10402 10410 10420 10435 10448 10458 10471 10486 10498 10510 10523 10536 10545 10553 10561 10567 10572 10578 10582 10587 10591 10597 10605 10613 10617 10620 10624 10630 10636 10641 10643 10645 10652 10660 10664 10666 10671 10676 10679 10682 10685 10688 10692 10702 10717 10731 10742 10748 10750 10754 10760 10765
10317 10313 10310 10306 10304 10302 10301 10300 10299 10299 10298 10296 10296 10298 10299 10299 10300 10302 10304 10305 10305 10307 10314 10320 10324 10328 10334 10339 10344 10349 10354 10360 10368 10376 10384 10391 10400 10411 10424 10435 10447 10461 10476 10490 10503 10516 10527 10536 10544 10551 10558 10565 10571 10576 10581 10587 10593 10601 10606 10609 10613 10619 10623 10629 10634 10636 10639 10646 10654 10658 10660 10665 10668 10668 10671 10675 10680 10689 10702 10713 10719 10727 10733 10736 10740 10747 10755
10307 10304 10300 10297 10296 10294 10292 10291 10290 10290 10290 10289 10289 10290 10291 10292 10293 10294 10296 10298 10298 10301 10308 10313 10316 10321 10327 10331 10334 10340 10345 10352 10359 10367 10375 10383 10392 10402 10412 10424 10438 10452 10467 10481 10495 10508 10518 10526 10534 10543 10551 10559 10566 10572 10578 10583 10589 10596 10601 10604 10608 10613 10617 10623 10628 10630 10633 10641 10647 10652 10656 10658 10657 10658 10663 10669 10678 10688 10697 10701 10706 10714 10721 10725 10731 10739 10746
10298 10295 10291 10289 10287 10286 10285 10283 10282 10282 10282 10282 10281 10282 10283 10285 10287 10288 10290 10291 10291 10296 10303 10307 10309 10314 10319 10322 10327 10333 10338 10345 10352 10360 10368 10377 10385 10394 10405 10417 10431 10445 10458 10472 10486 10498 10507 10516 10526 10537 10546 10555 10562 10567 10572 10577 10584 10592 10596 10598 10602 10606 10612 10618 10621 10623 10628 10636 10642 10646 10649 10648 10648 10653 10659 10666 10674 10681 10685 10688 10695 10704 10710 10716 10723 10729 10734
10289 10286 10283 10281 10280 10278 10277 10276 10275 10275 10275 10275 10275 10276 10277 10279 10281 10282 10283 10284 10286 10292 10298 10300 10303 10308 10312 10316 10321 10327 10333 10340 10347 10354 10362 10370 10378 10388 10399 10410 10423 10437 10450 10464 10477 10489 10498 10506 10517 10529 10539 10548 10555 10559 10564 10571 10579 10586 10589 10592 10596 10600 10605 10611 10614 10616 10624 10631 10635 10638 10640 10640 10643 10649 10654 10660 10665 10669 10674 10679 10686 10693 10700 10707 10714 10719 10724
10281 10279 10277 10275 10273 10271 10270 10269 10269 10269 10269 10269 10269 10271 10272 10273 10275 10276 10277 10279 10282 10287 10291 10293 10296 10301 10306 10312 10317 10322 10328 10335 10342 10348 10356 10365 10373 10382 10392 10404 10416 10429 10443 10456 10469 10480 10489 10497 10508 10520 10530 10539 10547 10553 10558 10565 10573 10580 10584 10587 10589 10592 10599 10606 10610 10614 10621 10626 10629 10633 10635 10637 10639 10643 10647 10653 10657 10661 10666 10671 10676 10683 10691 10698 10705 10710 10715
10274 10272 10270 10268 10267 10265 10265 10264 10263 10263 10263 10263 10264 10266 10267 10268 10269 10270 10272 10274 10278 10282 10284 10287 10292 10297 10302 10307 10311 10315 10322 10329 10336 10343 10352 10360 10367 10376 10387 10399 10411 10424 10437 10451 10462 10472 10481 10490 10501 10512 10521 10530 10539 10547 10553 10560 10569 10576 10578 10580 10583 10587 10594 10602 10606 10611 10616 10621 10625 10630 10632 10632 10634 10637 10641 10647 10651 10655 10659 10664 10669 10675 10682 10689 10695 10700 10705
10268 10266 10264 10262 10261 10260 10260 10259 10258 10258 10259 10259 10260 10261 10262 10263 10264 10265 10267 10270 10274 10277 10280 10284 10288 10293 10297 10301 10306 10311 10319 10326 10332 10339 10347 10354 10363 10373 10384 10395 10407 10419 10432 10445 10456 10466 10476 10486 10496 10507 10516 10524 10532 10540 10547 10555 10562 10567 10570 10575 10579 10584 10590 10597 10601 10605 10612 10617 10622 10626 10627 10629 10631 10633 10637 10642 10647 10650 10655 10659 10663 10669 10675 10681 10686 10692 10697
10262 10260 10259 10257 10256 10255 10254 10254 10253 10254 10254 10255 10255 10257 10258 10259 10260 10262 10264 10267 10270 10273 10277 10280 10284 10289 10293 10298 10303 10309 10316 10322 10328 10335 10343 10352 10361 10371 10381 10391 10402 10414 10427 10438 10449 10461 10472 10482 10492 10502 10512 10521 10527 10534 10542 10548 10552 10558 10566 10571 10573 10577 10584 10590 10596 10602 10609 10615 10620 10622 10623 10625 10627 10630 10634 10638 10642 10645 10649 10653 10658 10663 10669 10675 10680 10686 10691
10257 10255 10254 10252 10251 10251 10250 10250 10249 10250 10250 10251 10252 10253 10254 10255 10257 10259 10262 10265 10267 10270 10273 10277 10281 10286 10291 10296 10301 10307 10313 10319 10326 10334 10343 10351 10359 10368 10377 10388 10399 10410 10422 10433 10445 10455 10466 10477 10488 10497 10506 10515 10521 10528 10536 10542 10546 10553 10560 10562 10565 10572 10580 10586 10592 10599 10606 10612 10615 10617 10618 10620 10623 10628 10632 10635 10637 10640 10644 10648 10652 10657 10662 10668 10674 10679 10685
10253 10251 10250 10249 10247 10247 10246 10246 10246 10247 10247 10248 10249 10250 10251 10253 10255 10257 10260 10262 10265 10268 10271 10275 10280 10285 10289 10294 10300 10306 10312 10319 10326 10333 10341 10349 10357 10366 10376 10385 10396 10407 10418 10430 10441 10451 10461 10471 10481 10491 10501 10508 10515 10522 10531 10537 10541 10547 10551 10555 10562 10570 10577 10581 10588 10595 10601 10606 10609 10611 10612 10615 10620 10626 10630 10632 10634 10637 10640 10643 10647 10651 10655 10661 10666 10672 10677
10249 10248 10246 10245 10244 10244 10243 10243 10244 10244 10245 10246 10247 10248 10250 10251 10254 10256 10258 10261 10264 10267 10270 10275 10279 10283 10287 10293 10299 10305 10312 10318 10325 10332 10339 10347 10355 10365 10374 10383 10393 10404 10415 10426 10437 10446 10455 10464 10473 10483 10493 10501 10508 10516 10524 10529 10534 10540 10546 10552 10560 10567 10572 10577 10584 10590 10595 10600 10604 10606 10608 10613 10619 10624 10628 10631 10633 10635 10637 10640 10643 10646 10649 10653 10659 10664 10669
10247 10245 10244 10243 10242 10242 10241 10241 10242 10242 10243 10244 10245 10247 10248 10251 10253 10255 10257 10260 10263 10267 10270 10274 10278 10282 10287 10293 10299 10304 10311 10317 10324 10331 10339 10346 10355 10364 10373 10382 10392 10402 10412 10422 10430 10438 10448 10459 10468 10477 10486 10495 10503 10511 10518 10523 10528 10535 10542 10548 10554 10561 10567 10572 10579 10585 10591 10595 10598 10601 10605 10611 10618 10623 10626 10628 10631 10632 10634 10637 10640 10642 10644 10648 10652 10657 10662
10244 10243 10242 10241 10241 10240 10240 10240 10240 10241 10241 10242 10244 10245 10247 10250 10252 10255 10257 10260 10263 10266 10270 10274 10278 10283 10288 10293 10299 10304 10310 10316 10323 10330 10338 10347 10355 10363 10371 10380 10389 10398 10408 10417 10426 10434 10444 10455 10465 10473 10481 10490 10499 10505 10511 10517 10524 10531 10537 10542 10548 10554 10561 10568 10575 10582 10588 10591 10595 10599 10604 10609 10616 10620 10624 10626 10629 10631 10633 10636 10638 10640 10642 10644 10647 10651 10656
10243 10242 10241 10240 10239 10239 10238 10238 10239 10239 10240 10241 10243 10245 10247 10250 10252 10255 10257 10260 10263 10266 10270 10274 10278 10283 10288 10294 10299 10304 10310 10316 10322 10329 10336 10345 10354 10361 10369 10377 10386 10396 10405 10414 10425 10435 10443 10453 10462 10469 10477 10486 10494 10498 10504 10513 10520 10527 10533 10538 10543 10550 10558 10567 10573 10578 10584 10588 10592 10597 10602 10607 10612 10618 10621 10624 10626 10628 10631 10633 10634 10636 10638 10640 10643 10646 10650
10242 10240 10240 10239 10238 10238 10238 10238 10238 10239 10240 10242 10243 10245 10248 10250 10253 10255 10258 10261 10264 10267 10271 10274 10279 10284 10289 10294 10299 10305 10310 10316 10322 10329 10336 10344 10352 10360 10368 10376 10385 10394 10404 10413 10423 10431 10439 10448 10457 10465 10473 10481 10487 10493 10501 10510 10518 10524 10529 10535 10540 10548 10555 10562 10567 10572 10578 10584 10588 10593 10599 10603 10608 10613 10617 10620 10623 10625 10627 10628 10629 10631 10633 10635 10637 10641 10644
10241 10240 10239 10238 10238 10238 10238 10238 10239 10240 10241 10243 10244 10246 10249 10251 10253 10256 10259 10262 10265 10268 10271 10275 10280 10284 10290 10295 10299 10305 10311 10317 10323 10330 10337 10345 10352 10359 10367 10375 10384 10392 10401 10410 10419 10427 10436 10446 10454 10461 10469 10477 10484 10491 10500 10508 10514 10520 10526 10531 10537 10544 10550 10555 10561 10567 10574 10579 10584 10589 10595 10599 10603 10608 10612 10615 10619 10621 10623 10625 10626 10627 10629 10631 10633 10636 10639
10242 10240 10239 10239 10238 10238 10238 10239 10240 10241 10242 10244 10246 10248 10250 10252 10254 10257 10259 10262 10265 10268 10272 10276 10281 10285 10290 10295 10300 10306 10312 10318 10324 10331 10337 10345 10353 10360 10367 10375 10383 10391 10399 10407 10416 10425 10434 10443 10452 10460 10468 10475 10482 10490 10498 10505 10511 10517 10523 10528 10534 10541 10546 10551 10557 10564 10570 10574 10579 10585 10590 10594 10598 10603 10606 10609 10613 10616 10619 10621 10622 10623 10626 10628 10630 10633 10635
10242 10241 10240 10240 10239 10240 10240 10241 10242 10243 10244 10246 10247 10249 10251 10253 10256 10258 10261 10263 10267 10270 10274 10278 10283 10287 10291 10296 10301 10307 10313 10319 10326 10332 10339 10345 10353 10360 10367 10375 10383 10390 10399 10407 10416 10424 10432 10441 10450 10457 10464 10472 10480 10488 10496 10503 10509 10514 10520 10525 10532 10538 10544 10549 10554 10560 10566 10571 10575 10581 10586 10590 10593 10598 10601 10604 10608 10611 10614 10615 10617 10619 10623 10626 10628 10631 10634
10244 10243 10242 10241 10241 10242 10242 10243 10244 10245 10246 10247 10249 10251 10253 10255 10257 10260 10263 10266 10269 10273 10277 10281 10285 10290 10294 10299 10304 10309 10315 10321 10327 10334 10341 10347 10353 10361 10368 10376 10384 10392 10400 10408 10416 10424 10433 10441 10448 10454 10461 10470 10479 10487 10494 10501 10506 10512 10517 10522 10529 10535 10540 10544 10549 10555 10563 10568 10572 10577 10582 10585 10588 10592 10596 10599 10603 10606 10608 10609 10612 10616 10620 10622 10625 10628 10630
10246 10245 10245 10244 10244 10244 10244 10245 10246 10247 10248 10250 10251 10253 10255 10257 10260 10262 10265 10269 10272 10276 10280 10284 10288 10292 10297 10302 10307 10312 10318 10323 10328 10335 10341 10348 10354 10362 10370 10379 10388 10395 10402 10409 10416 10424 10433 10441 10448 10453 10460 10469 10478 10485 10491 10497 10503 10509 10514 10520 10525 10531 10535 10540 10545 10551 10557 10562 10567 10571 10576 10579 10582 10586 10589 10594 10597 10599 10601 10604 10608 10612 10614 10617 10619 10622 10624
10249 10248 10248 10247 10247 10247 10247 10248 10248 10249 10250 10252 10254 10256 10258 10260 10262 10265 10269 10272 10275 10278 10282 10286 10290 10294 10299 10303 10308 10314 10320 10326 10331 10337 10343 10350 10356 10363 10371 10380 10388 10395 10403 10410 10417 10424 10432 10440 10447 10453 10460 10468 10477 10483 10489 10495 10500 10506 10511 10516 10521 10527 10531 10536 10541 10547 10551 10555 10560 10564 10568 10573 10577 10581 10584 10587 10590 10593 10595 10599 10602 10605 10607 10610 10613 10616 10618
10252 10252 10251 10251 10251 10251 10251 10251 10252 10253 10254 10255 10257 10258 10260 10263 10266 10268 10271 10273 10276 10280 10284 10288 10292 10296 10301 10305 10310 10315 10321 10327 10332 10339 10345 10352 10358 10365 10372 10379 10387 10395 10403 10411 10417 10424 10431 10438 10445 10452 10459 10466 10474 10481 10487 10493 10498 10502 10507 10512 10517 10523 10528 10532 10537 10542 10546 10550 10554 10558 10562 10566 10570 10574 10577 10580 10584 10587 10589 10592 10594 10597 10599 10602 10605 10608 10610
10255 10255 10254 10254 10254 10254 10255 10255 10256 10257 10257 10258 10260 10262 10263 10266 10269 10271 10273 10276 10279 10282 10286 10290 10294 10298 10304 10309 10313 10317 10322 10328 10333 10339 10346 10353 10360 10367 10373 10380 10387 10395 10403 10410 10416 10423 10430 10437 10443 10450 10456 10463 10470 10477 10483 10489 10494 10498 10502 10508 10513 10519 10523 10528 10533 10537 10540 10544 10549 10553 10556 10560 10564 10567 10571 10574 10577 10580 10582 10584 10587 10589 10592 10595 10598 10600 10603
10258 10258 10257 10257 10258 10258 10258 10259 10260 10260 10261 10263 10264 10266 10268 10270 10273 10275 10278 10281 10283 10286 10289 10293 10296 10300 10305 10311 10316 10320 10325 10330 10336 10342 10348 10354 10361 10368 10375 10381 10388 10395 10401 10408 10415 10422 10429 10435 10442 10448 10453 10459 10466 10474 10480 10485 10489 10493 10498 10504 10509 10514 10519 10523 10528 10532 10536 10540 10544 10548 10552 10555 10559 10563 10566 10569 10571 10574 10576 10577 10579 10582 10585 10588 10591 10593 10596
10262 10261 10261 10261 10261 10261 10262 10263 10264 10265 10266 10267 10268 10270 10272 10274 10276 10279 10281 10284 10288 10291 10294 10297 10300 10303 10308 10313 10318 10323 10328 10333 10338 10343 10349 10356 10362 10368 10375 10381 10387 10392 10399 10406 10413 10420 10427 10433 10439 10445 10451 10457 10464 10470 10475 10479 10483 10488 10493 10499 10505 10510 10514 10518 10522 10527 10531 10536 10539 10543 10547 10551 10555 10558 10561 10564 10566 10568 10570 10571 10573 10576 10579 10581 10584 10587 10589
10265 10265 10265 10265 10265 10266 10266 10267 10268 10269 10270 10271 10272 10274 10275 10277 10279 10282 10284 10287 10290 10294 10297 10300 10303 10307 10310 10315 10321 10326 10330 10335 10340 10345 10350 10356 10361 10367 10373 10379 10385 10391 10398 10406 10412 10417 10424 10430 10436 10442 10448 10454 10459 10465 10469 10473 10478 10483 10489 10494 10499 10504 10509 10513 10517 10522 10526 10531 10535 10538 10542 10546 10550 10552 10555 10557 10560 10562 10564 10566 10568 10570 10572 10575 10577 10580 10582
10269 10269 10269 10269 10270 10270 10271 10271 10272 10273 10274 10275 10277 10278 10279 10281 10283 10285 10288 10291 10294 10297 10300 10303 10306 10310 10314 10318 10323 10328 10332 10337 10342 10347 10352 10357 10363 10369 10374 10380 10386 10393 10400 10406 10411 10417 10423 10429 10435 10440 10445 10450 10455 10461 10465 10469 10473 10478 10483 10488 10493 10499 10504 10508 10512 10516 10520 10525 10529 10534 10537 10541 10544 10547 10549 10551 10554 10556 10558 10560 10562 10564 10566 10569 10571 10574 10576
10273 10273 10273 10274 10275 10275 10276 10276 10277 10278 10279 10280 10281 10282 10284 10286 10288 10290 10293 10296 10298 10301 10304 10307 10310 10313 10316 10320 10325 10330 10334 10338 10343 10349 10354 10359 10365 10370 10375 10381 10387 10394 10400 10406 10412 10418 10424 10429 10433 10438 10442 10447 10452 10456 10459 10462 10467 10472 10478 10484 10489 10494 10499 10503 10507 10510 10514 10518 10523 10528 10531 10534 10537 10540 10543 10545 10548 10550 10552 10554 10556 10558 10561 10563 10565 10568 10570
10277 10277 10277 10278 10279 10280 10281 10282 10282 10283 10284 10285 10286 10287 10288 10290 10292 10295 10298 10301 10303 10306 10309 10312 10315 10318 10321 10324 10327 10332 10337 10341 10345 10350 10355 10360 10365 10371 10376 10382 10388 10394 10399 10405 10411 10417 10422 10427 10431 10435 10439 10444 10447 10449 10452 10457 10463 10469 10475 10481 10486 10490 10494 10498 10501 10504 10508 10512 10517 10521 10525 10527 10530 10532 10535 10538 10541 10543 10546 10548 10550 10552 10555 10557 10560 10562 10564
10282 10281 10281 10282 10283 10285 10286 10286 10287 10288 10289 10290 10291 10292 10294 10295 10297 10299 10302 10305 10307 10310 10313 10317 10320 10324 10328 10330 10333 10336 10340 10344 10348 10352 10357 10362 10367 10372 10378 10384 10389 10394 10399 10404 10410 10415 10420 10424 10427 10430 10435 10439 10442 10445 10450 10456 10462 10467 10472 10477 10481 10485 10489 10492 10495 10498 10502 10506 10510 10514 10518 10520 10523 10525 10528 10531 10534 10537 10539 10542 10544 10547 10549 10551 10554 10555 10557
10288 10287 10287 10287 10288 10289 10290 10291 10291 10292 10293 10294 10296 10297 10299 10301 10302 10304 10307 10309 10311 10313 10316 10319 10323 10327 10331 10335 10338 10341 10344 10348 10351 10355 10360 10364 10368 10374 10379 10385 10390 10395 10398 10403 10407 10412 10417 10420 10424 10428 10432 10436 10439 10443 10447 10453 10458 10463 10469 10473 10477 10480 10483 10486 10489 10492 10496 10499 10503 10507 10511 10514 10516 10519 10522 10525 10527 10530 10532 10535 10537 10540 10542 10544 10546 10547 10548
10292 10292 10292 10292 10293 10294 10295 10296 10296 10296 10297 10298 10300 10301 10303 10305 10307 10309 10312 10314 10316 10318 10321 10323 10326 10329 10333 10337 10341 10345 10348 10351 10355 10359 10363 10367 10371 10375 10380 10385 10390 10394 10398 10402 10407 10411 10415 10418 10423 10427 10431 10435 10438 10442 10447 10452 10456 10461 10465 10468 10471 10474 10477 10480 10483 10487 10490 10493 10497 10500 10504 10507 10510 10513 10515 10518 10521 10523 10526 10528 10530 10532 10534 10536 10537 10538 10539
10297 10297 10298 10298 10298 10299 10300 10300 10301 10301 10302 10303 10304 10306 10307 10309 10311 10313 10316 10318 10321 10324 10326 10329 10331 10334 10336 10340 10343 10347 10350 10354 10357 10360 10364 10368 10372 10376 10380 10384 10388 10393 10397 10402 10407 10411 10415 10418 10422 10427 10431 10435 10439 10442 10446 10450 10453 10457 10460 10463 10466 10469 10472 10475 10478 10481 10485 10488 10491 10494 10497 10500 10503 10506 10509 10512 10514 10517 10519 10522 10523 10525 10526 10527 10529 10529 10530
10302 10302 10303 10303 10304 10304 10304 10305 10305 10306 10307 10308 10309 10310 10312 10313 10315 10318 10320 10322 10324 10327 10330 10333 10336 10338 10341 10343 10345 10348 10351 10355 10359 10362 10366 10370 10373 10377 10380 10384 10388 10392 10396 10401 10405 10409 10412 10417 10422 10426 10430 10433 10437 10440 10443 10445 10449 10452 10455 10458 10461 10464 10466 10469 10472 10475 10478 10481 10484 10487 10490 10493 10496 10499 10502 10504 10507 10509 10512 10513 10515 10516 10518 10519 10520 10521 10522